TimeEST,TemperatureF,Dew PointF,Humidity,Sea Level PressureIn,VisibilityMPH,Wind Direction,Wind SpeedMPH,Gust SpeedMPH,PrecipitationIn,Events,Conditions,WindDirDegrees,DateUTC
12:55 AM,23.5,20.1,87,30.29,10.0,WNW,3.5,-,N/A,,Mostly Cloudy,290,2012-12-07 05:55:00
1:55 AM,24.1,19.4,82,30.28,10.0,Calm,Calm,-,N/A,,Mostly Cloudy,0,2012-12-07 06:55:00
2:55 AM,23.4,19.0,84,30.27,10.0,Calm,Calm,-,N/A,,Mostly Cloudy,0,2012-12-07 07:55:00
3:55 AM,23.0,19.8,87,30.26,10.0,Calm,Calm,-,N/A,,Mostly Cloudy,0,2012-12-07 08:55:00
4:55 AM,24.4,20.8,86,30.25,10.0,Calm,Calm,-,N/A,,Overcast,0,2012-12-07 09:55:00
5:55 AM,25.0,20.8,84,30.25,10.0,Calm,Calm,-,N/A,,Overcast,0,2012-12-07 10:55:00
6:22 AM,24.8,21.2,86,30.25,10.0,Calm,Calm,-,N/A,,Overcast,0,2012-12-07 11:22:00
6:35 AM,24.8,21.2,86,30.25,10.0,Calm,Calm,-,N/A,,Mostly Cloudy,0,2012-12-07 11:35:00
6:55 AM,24.8,21.6,87,30.25,10.0,Calm,Calm,-,N/A,,Mostly Cloudy,0,2012-12-07 11:55:00
7:55 AM,26.2,21.9,84,30.24,10.0,Calm,Calm,-,N/A,,Overcast,0,2012-12-07 12:55:00
8:55 AM,28.2,21.9,77,30.23,10.0,SW,3.5,-,N/A,,Overcast,230,2012-12-07 13:55:00
9:11 AM,28.4,21.2,74,30.23,10.0,Calm,Calm,-,N/A,,Overcast,0,2012-12-07 14:11:00
9:55 AM,32.2,24.3,73,30.23,10.0,Calm,Calm,-,N/A,,Overcast,0,2012-12-07 14:55:00
10:55 AM,35.8,26.6,69,30.20,10.0,SW,3.5,-,N/A,,Mostly Cloudy,220,2012-12-07 15:55:00
11:19 AM,37.4,28.4,70,30.18,10.0,South,5.8,-,N/A,,Mostly Cloudy,190,2012-12-07 16:19:00
11:55 AM,38.8,27.9,65,30.17,10.0,SW,6.9,-,N/A,,Overcast,220,2012-12-07 16:55:00
12:55 PM,40.5,28.8,63,30.14,10.0,Variable,5.8,-,N/A,,Overcast,0,2012-12-07 17:55:00
1:55 PM,42.4,29.7,61,30.12,10.0,SSW,6.9,-,N/A,,Overcast,210,2012-12-07 18:55:00
2:55 PM,42.3,30.4,63,30.11,10.0,SSW,5.8,-,N/A,,Overcast,200,2012-12-07 19:55:00
3:55 PM,42.4,30.7,63,30.09,10.0,South,5.8,-,N/A,,Overcast,190,2012-12-07 20:55:00
4:08 PM,42.8,32.0,66,30.10,7.0,SSW,4.6,-,N/A,Rain,Light Rain,200,2012-12-07 21:08:00
4:55 PM,40.3,34.2,79,30.09,7.0,South,4.6,-,0.00,Rain,Light Rain,170,2012-12-07 21:55:00
5:55 PM,39.0,35.2,86,30.09,6.0,SSE,4.6,-,0.00,Rain,Light Rain,160,2012-12-07 22:55:00
6:55 PM,39.0,36.3,90,30.09,6.0,Calm,Calm,-,0.01,Rain,Light Rain,0,2012-12-07 23:55:00
7:55 PM,39.2,37.2,93,30.08,6.0,SSW,3.5,-,0.00,Rain,Light Rain,200,2012-12-08 00:55:00
8:26 PM,39.2,37.4,93,30.07,6.0,SW,3.5,-,N/A,Rain,Light Rain,220,2012-12-08 01:26:00
8:55 PM,39.6,37.9,94,30.06,7.0,South,4.6,-,0.01,,Overcast,190,2012-12-08 01:55:00
9:55 PM,40.5,38.8,94,30.05,7.0,WSW,3.5,-,N/A,,Overcast,240,2012-12-08 02:55:00
10:55 PM,40.3,38.7,94,30.04,5.0,SSW,3.5,-,N/A,,Overcast,210,2012-12-08 03:55:00
11:55 PM,40.1,39.0,96,30.04,4.0,SW,3.5,-,N/A,,Overcast,220,2012-12-08 04:55:00